OBJECT CX, 66759

Orbit data source: Space-Track

You're viewing an Uncataloged Satellite

Recently launched and/or uncataloged satellites may have evolving metadata. Metadata may include but not limited to: Owner, Maufacturer, Bus, Motor, and Mission.

OBJECT CX, 66759 is a satellite in SSO that was launched on Fri, 28 Nov 2025 UTC via an FALCON 9 launch vehicle from the Air Force Western Test Range (AFWTR). Unknown objects in Earth's orbit typically refer to objects detected orbiting the Earth but have not yet been identified or cataloged. These objects could be anything from previously untracked satellites, spent rocket stages, debris from satellite collisions, or even natural meteoroids temporarily captured by Earth's gravity.

Loading next visibility...
Identifier
66759, 2025-276CX
Orbit
SSO
Country
Flag of TBDTBD
Related business
None
Manufacturer
Unknown
Mission
Operational Commercial Sigint/Imaging
Bus & Motor
Unknown
Mass
Unknown
Launch date (UTC)
2025-11-28 (2 months ago)
Launch vehicle
FALCON 9
Launch site
Air Force Western Test Range (AFWTR)
Object type
Unknown
Shape & HBR
Trap Box + Cyl, 0.5 m
Radar Cross Section
0.655 m²

Expand to show TLE details & history
Last TLE update: 4 hours ago

TLE from 4 hours ago
0 OBJECT CX
1 66759U 25276CX  26035.17268873  .00008687  00000-0  41751-3 0  9993
2 66759  97.4309 111.0599 0002385  68.7335 291.4154 15.19056549 10230
Epoch: 2026-02-04T04:08Z
TLE epoch observation values (Epoch: 2026-02-04T04:08:40.306Z)
Latitude
-0.00002°
Longitude
-85.45112°
Altitude
511.179 km
Speed
7.609 km/s
True Right ascension
07h 24m 14s
True Declination
0° 00' 00"
Sunlit
Object was in full shadow at epoch
Visualization orbit readout
Latitude
Unknown
Longitude
Unknown
Altitude
Unknown
Speed
Unknown
Apparent Right ascension
Unknown
Apparent Declination
Unknown
Sunlit
N/A
Visualization observer readout
Local Sidereal Time
10:13:59
Azimuth
Unknown
Elevation
Unknown
Doppler factor
Unknown
Orbital elements
Apogee altitude
507.301 km
Perigee altitude
504.017 km
Semi-major axis
6,883.796 km
Eccentricity
0.00024
Inclination
97.4309°
RAAN
111.0599°
Arg. of periapsis
68.7335°
True anomaly
291.38995°
Mean anomaly
291.4154°
Eccentric anomaly
291.40268°
Mean motion
3.80015 °/min
Orbital period
94.73 mins
BSTAR
0.00041751
Loading maneuver chart data...
Computing Atmospheric mass density...
Loading historical data...
Loading historical data...
Loading historical data...
Loading historical data...
Loading historical data...
Loading historical data...
Loading historical data...

Documentation

Showing up to 5 results
|